Location: Newark
(43.6583°N, 1.6617°E)
Time: 19:29:37
(UTC+00:00)

Transit 4A - Pass Details

Date: 01 September 2019
Orbit: 867 x 978 km, 66.8° (Epoch: 17 October)

Event Time Altitude Azimuth Distance (km) Brightness Sun altitude
Rises 23:06:12 0° 333° (NNW) 3,637 11.9 -37.1°
Reaches altitude 10° 23:09:11 10° 344° (NNW) 2,671 11.0 -37.3°
Enters shadow 23:13:54 28° 33° (NNE) 1,668 9.5 -37.5°
